Regional Weather Roundup
Issued by NWS

Home | Current Version | Previous Version | Graphics & Text | Print | Product List | Glossary On
Versions: 1 2 3 4 5 6 7 8 9 10 11 12 13 14 15 16 17 18 19 20 21 22 23 24 25 26 27 28 29 30 31 32 33 34 35 36 37 38 39 40 41 42 43 44 45 46 47 48 49 50
489
ASUS45 KCYS 191610
RWRWY

WYOMING REGIONAL WEATHER ROUNDUP
NATIONAL WEATHER SERVICE CHEYENNE WY
1000 AM MDT THU OCT 19 2017

NOTE:  "FAIR" INDICATES FEW OR NO CLOUDS BELOW 12,000 FEET
WITH NO SIGNIFICANT WEATHER AND/OR OBSTRUCTIONS TO VISIBILITY.

WYZ001-191700-
YELLOWSTONE NATIONAL PARK

CITY           SKY/WX    TMP DP  RH WIND       PRES   REMARKS
LK YELLOWSTONE   N/A     42  28  57 CALM      30.12S
W YELLOWSTONE  NOT AVBL

$$
WYZ002>013-054>058-071-098>099-191700-
NORTHERN WYOMING

CITY           SKY/WX    TMP DP  RH WIND       PRES   REMARKS
JACKSON        FAIR      38  24  57 CALM      30.11F
CODY           FAIR      60  22  23 S12       29.94F
GREYBULL       FAIR      47  27  45 NE3       29.93S
WORLAND        FAIR      51  32  48 NE3       29.93S
SHERIDAN       FAIR      58  35  42 N5        29.84F
BUFFALO        FAIR      69  22  16 S7        29.91S
GILLETTE       FAIR      60  25  26 S10       29.89F
HULETT         FAIR      61  28  29 W3        29.91F
NEWCASTLE      FAIR      59  21  23 SE14      29.97S

$$
WYZ014>020-022>026-101>103-191700-
CENTRAL WYOMING

CITY           SKY/WX    TMP DP  RH WIND       PRES   REMARKS
BIG PINEY      FAIR      31  19  61 CALM      30.15F
PINEDALE       FAIR      37  23  56 NW3       30.15F
DUBOIS         FAIR      50  18  27 NW12      30.07S
LANDER         FAIR      48  22  35 NW5       30.01S
RIVERTON       FAIR      50  26  39 E3        30.02S
CASPER         FAIR      58  17  20 SW24G33   30.01R
DOUGLAS        FAIR      53  23  31 S3        30.00F

$$
WYZ021-027>030-104>119-191700-
SOUTHERN WYOMING

CITY           SKY/WX    TMP DP  RH WIND       PRES   REMARKS
EVANSTON       FAIR      50  14  23 S3        30.12F
KEMMERER       FAIR      37  14  38 N9        30.14S WCI  31
FORT BRIDGER   FAIR      46  15  29 CALM      30.16S
ROCK SPRINGS   FAIR      40  14  34 CALM      30.13S
DIXON          FAIR      44  18  35 S3        30.17F
RAWLINS        FAIR      47  15  27 CALM      30.14S
SARATOGA       FAIR      52  16  24 SE13      30.15S
LARAMIE        FAIR      53  19  26 SW6       30.16R
CHEYENNE       FAIR      64  21  19 W8        30.10R
TORRINGTON     FAIR      54  32  43 CALM      29.99F
PINE BLUFFS    FAIR      57  30  35 CALM      30.07S

$$




USA.gov is the U.S. government's official web portal to all federal, state and local government web resources and services.